HORIZON (RS59S)

Last updated on Mon Sep 15 2025 00:03:09 GMT+0000 (Coordinated Universal Time)

1 61757U 24199Y 25257.26883948 .00024331 00000+0 55530-3 0 9993 2 61757 97.3387 127.1188 0009718 175.1791 184.9552 15.42829695 95020
UTC large
Height (km)
Speed (km/s)
/
Latitude / Longitude
Inclination (degrees)
Orbital Period (minutes)
Azimuth
Elevation
Range (km)
Doppler Factor

Next 0 passes for location: London (51.5072 / 0.1276)

Sorry there are no passes over London.